Location: Buckland
(65.9785°N, 161.1281°W)
Time: 21:19:41
(UTC+00:00)

SPROUT - Pass Details

Date: 21 January 2021
Orbit: 597 x 610 km, 97.9° (Epoch: 07 March)

Event Time Altitude Azimuth Distance (km) Brightness Sun altitude
Exits shadow 07:41:18 11° 354° (N) 1,945 ? -34.3°
Drops below altitude 10° 07:41:26 10° 353° (N) 1,978 ? -34.3°
Sets 07:44:17 0° 332° (NNW) 2,888 ? -34.5°
